Location: Beuerbach
(48.1459°N, 10.9174°E)
Time: 22:40:55
(UTC+00:00)

Cosmos 2278 - Pass Details

Date: 23 May 2024
Orbit: 837 x 853 km, 71.1° (Epoch: 14 June)

Event Time Altitude Azimuth Distance (km) Brightness Sun altitude
Rises 00:33:36 0° 332° (NNW) 3,431 7.5 -18.9°
Reaches altitude 10° 00:36:03 10° 334° (NNW) 2,493 6.7 -18.7°
Maximum altitude 00:41:48 82° 62° (ENE) 868 3.8 -18.4°
Enters shadow 00:46:54 13° 150° (SSE) 2,247 5.6 -18.1°
